This is the latest recevied weather packets stored in our database for station/object DG9MHV-10. If no packets are shown the sender has not sent any weather packets the latest 10 day(s).
| Time | Temp. | Humidity | Pressure | Rain* | Wind** | Luminosity | Snow |
|---|---|---|---|---|---|---|---|
| 1778150469 | 16.11° C | 100% | 1009.5 hPa | - | - | - | - |
| 1778149569 | 14.44° C | 100% | 1009.9 hPa | - | - | - | - |
| 1778148669 | 14.44° C | 100% | 1009.5 hPa | - | - | - | - |
| 1778147769 | 15.56° C | 100% | 1009.3 hPa | - | - | - | - |
| 1778146869 | 15.56° C | 100% | 1009.3 hPa | - | - | - | - |
| 1778145969 | 15° C | 100% | 1009.2 hPa | - | - | - | - |
| 1778145069 | 14.44° C | 100% | 1009.4 hPa | - | - | - | - |
| 1778144169 | 13.89° C | 100% | 1009.5 hPa | - | - | - | - |
| 1778143269 | 13.89° C | 100% | 1010.2 hPa | - | - | - | - |
| 1778142369 | 12.78° C | 100% | 1009.8 hPa | - | - | - | - |
| 1778141468 | 12.78° C | 100% | 1009.1 hPa | - | - | - | - |
| 1778140568 | 13.33° C | 100% | 1008.5 hPa | - | - | - | - |
| 1778139668 | 13.89° C | 100% | 1008.6 hPa | - | - | - | - |
| 1778138768 | 12.22° C | 100% | 1009 hPa | - | - | - | - |
| 1778137868 | 12.78° C | 100% | 1008.6 hPa | - | - | - | - |
| 1778136968 | 12.78° C | 100% | 1008.7 hPa | - | - | - | - |
| 1778136068 | 12.78° C | 100% | 1009.2 hPa | - | - | - | - |
| 1778135168 | 11.67° C | 100% | 1009.5 hPa | - | - | - | - |
| 1778134268 | 11.11° C | 100% | 1009.1 hPa | - | - | - | - |
| 1778133368 | 12.22° C | 100% | 1008.8 hPa | - | - | - | - |
| 1778132468 | 12.78° C | 100% | 1011 hPa | - | - | - | - |
| 1778131568 | 10.56° C | 100% | 1015.7 hPa | - | - | - | - |
| 1778130668 | 9.44° C | 100% | 1017.8 hPa | - | - | - | - |
| 1778129768 | 8.89° C | 100% | 1019 hPa | - | - | - | - |
| 1778128868 | 8.33° C | 100% | 1019.8 hPa | - | - | - | - |
* Rain since midnight (hover to see other rain measurements)
** Current wind speed in m/s (hover to see current wind gust speed)